Airfield :
LOGIN :

Register | Disclaimer

   EN    FR    IT 

 










Legend :    VFR   Marginal VFR   IFR   Intensive IFR   Very Intensive IFR
Visi :
Ceiling :
>= 8 km
>= 3000ft
5 to 8 km
1000 to 3000 ft
1500m to 5 km
500 to 1000 ft
800 to 1500m
200 to 500 ft
< 800m
< 200 ft
Symbols :   Thunderstorms  Fog  Heavy snow  Heavy precipitations  Wind > 20 kt
SIGMETs :     Misc.  Thunderstorms  Icing  Turbulence  Mountain Waves  Volcanic Ashes







- Airport Elevation : 302 ft
- Download approach charts


LFPM - Melun Villaroche

CURRENT METAR :
  • 281230Z AUTO 25011KT 210V280 9999 FEW049 SCT056 BKN120 22/11 Q1016

EXPIRED METARs :
  • 281200Z AUTO 23012KT 9999 BKN044 BKN050 OVC120 22/13 Q1016
  • 281130Z AUTO 23013KT 9999 BKN042 BKN050 OVC120 22/13 Q1016
  • 281100Z AUTO 24014KT 9999 BKN043 BKN049 BKN120 21/12 Q1016
  • 281030Z AUTO 22012KT 200V260 9999 SCT039 SCT130 22/14 Q1016
  • 281000Z AUTO 24012KT 220V280 9999 BKN034 BKN130 21/12 Q1016

Expired Forecast.
ATIS : +33 1 64 14 28 44
No reported NOTAMs for that airfield.



MET'MAP, your aeronautical weather chart ! - Copyright ORBIFLY December 2007 - Disclaimer

ORBIFLY MET'MAP TEAM :

Programming & Development : Alexandra Zaïnal
Concept & Development : Baudouin d'Aumeries
Co-Development & Prog : Marc-Olivier Méhu
Technical & hardware support : Manuel Goepfert

Contact : metmap@orbifly.com




SOURCES & CREDITS :

   NOAA